Location: Bazinghen
(50.8246°N, 1.6616°E)
Time: 09:26:12
(UTC+00:00)

SPOT 5 - Pass Details

Date: 09 April 2020
Orbit: 624 x 814 km, 98.3° (Epoch: 24 May)

Event Time Altitude Azimuth Distance (km) Brightness Sun altitude
Exits shadow 20:31:39 25° 90° (E) 1,266 3.7 -16.7°
Maximum altitude 20:32:46 29° 63° (ENE) 1,167 3.7 -16.9°
Drops below altitude 10° 20:36:30 10° 4° (N) 2,014 5.6 -17.3°
Sets 20:38:55 0° 354° (N) 2,936 6.7 -17.6°
